Regional Weather Roundup
Issued by NWS

Home | Current Version | Previous Version | Text Only | Print | Product List | Glossary Off
Versions: 1 2 3 4 5 6 7 8 9 10 11 12 13 14 15 16 17 18 19 20 21 22 23 24 25 26 27 28 29 30 31 32 33 34 35 36 37 38 39 40 41 42 43 44 45 46 47 48 49 50

000
ASUS45 KSLC 041910
RWRUT

UTAH REGIONAL WEATHER ROUNDUP
NATIONAL WEATHER SERVICE SALT LAKE CITY UT
100 PM MDT FRI SEP 04 2015

UTZ001>011-023>025-042000-

NORTHERN UTAH

CITY           SKY/WX    TMP DP  RH WIND       PRES   REMARKS
BRIGHAM CITY   SUNNY     84  25  11 SW22G31   29.81F
HILL AFB       MOSUNNY   81  37  20 S21G31    29.85F
LOGAN          MOSUNNY   83  34  17 SW22G33   29.82F
OGDEN          MOSUNNY   83  36  18 S24G31    29.82F
PROVO AIRPORT  MOSUNNY   84  43  23 S16       29.88F
SALT LAKE CITY MOSUNNY   85  33  15 S23G37    29.82F
VERNAL         PTSUNNY   77  37  23 CALM      29.99F
WENDOVER       SUNNY     75  36  23 NE8       29.81F
HEBER CITY     MOSUNNY   81  32  17 SW12      29.94F
WEST JORDAN    SUNNY     82  36  18 SE28G35   29.86F

$$

UTZ012>022-026-027-042000-

SOUTHERN/CENTRAL UTAH

CITY           SKY/WX    TMP DP  RH WIND       PRES   REMARKS
BLANDING       CLOUDY    63  56  79 W5        30.21R
BRYCE CANYON   PTSUNNY   69  39  33 S16G28    30.16S
CEDAR CITY     MOSUNNY   77  40  26 SW20G30   29.99F
DELTA          SUNNY     82  37  20 SW26G35   29.90F
HANKSVILLE     MOSUNNY   86  41  20 SW16G30   29.96F
MILFORD        MOSUNNY   81  41  24 S29G36    29.92F
MOAB/CYNLANDS  MOSUNNY   78  52  40 E3        29.96F
PRICE          MOSUNNY   77  40  26 S10G21    30.01F
ST GEORGE      PTCLDY    90  45  20 S16G28    29.86F
KANAB          MOSUNNY   79  48  34 SW10G21   30.06F

$$

REGIONAL REPORTS     COLORADO/ARIZONA

CITY           SKY/WX    TMP DP  RH WIND       PRES   REMARKS
CRAIG, CO      PTSUNNY   75  44  33 SW13G23   30.07S
GRAND JUNCTION PTSUNNY   74  48  39 SE15      30.02F
RIFLE          CLOUDY    68  52  56 E9        30.08F
MONTROSE       CLOUDY    71  51  49 VRB5      30.11F
CORTEZ         PTSUNNY   74  49  41 W6        30.10F
PAGE, AZ       SUNNY     85  47  26 VRB7      29.96F
GRAND CANYON   SUNNY     73  44  35 SW13G20   30.15F
KINGMAN        SUNNY     87  46  24 SW22G33   29.92F
FLAGSTAFF      MOSUNNY   69  47  45 S14G23    30.19F

$$

REGIONAL REPORTS    NEVADA/IDAHO/WYOMING

CITY           SKY/WX    TMP DP  RH WIND       PRES   REMARKS
LAS VEGAS, NV  MOSUNNY   90  50  25 S9G25     29.75F
ELY            SUNNY     73  30  20 S25G35    29.94F
ELKO           SUNNY     70  32  24 CALM      29.85F
POCATELLO, ID  MOSUNNY   69  41  36 VRB7      29.85F
BURLEY         MOSUNNY   67  42  40 N5        29.82F
EVANSTON, WY   SUNNY     75  26  16 SW21G38   30.01F
ROCK SPRINGS   SUNNY     75  34  22 S29G37    30.01F
KEMMERER       MOSUNNY   73  23  15 SW20G28   30.03F

$$


USA.gov is the U.S. government's official web portal to all federal, state and local government web resources and services.